FW6892 Weather Reports


time (UTC)temp
C
wind
direction
speed
KPH
gust
KPH
rain 1hr
cm
rain 24hr
cm
rain mn
cm
humidity
%
barometer
mb
20260504050508 8 329 11.3 11.3 0.00 0.00 0.00 59 1009.1
20260504050008 8 314 9.7 12.9 0.00 0.00 0.00 59 1009.1
20260504045508 7 192 4.8 4.8 0.00 0.00 0.00 59 1009.1
20260504044508 7 335 0.0 12.9 0.00 0.00 0.00 59 1009.1
20260504044008 7 324 8.0 9.7 0.00 0.00 0.00 58 1009.1
20260504043508 7 212 3.2 6.4 0.00 0.00 0.00 58 1009.4
20260504043008 7 31 6.4 6.4 0.00 0.00 0.00 58 1009.4
20260504042508 8 354 9.7 9.7 0.00 0.00 0.00 57 1009.4
20260504042007 8 294 3.2 8.0 0.00 0.00 0.00 57 1009.4
20260504041509 8 239 11.3 11.3 0.00 0.00 0.00 57 1009.4
20260504041008 8 209 4.8 11.3 0.00 0.00 0.00 57 1009.4
20260504040508 8 299 12.9 12.9 0.00 0.00 0.00 56 1009.4
20260504040009 8 245 1.6 4.8 0.00 0.00 0.00 55 1009.4
20260504035508 8 191 0.0 3.2 0.00 0.00 0.00 55 1009.4
20260504035008 8 259 12.9 12.9 0.00 0.00 0.00 55 1009.4
20260504034507 8 221 3.2 8.0 0.00 0.00 0.00 55 1009.4
20260504034008 8 220 1.6 8.0 0.00 0.00 0.00 54 1009.4
20260504033508 8 213 0.0 11.3 0.00 0.00 0.00 54 1009.4
20260504033008 8 177 1.6 16.1 0.00 0.00 0.00 54 1009.4
20260504032507 8 157 0.0 6.4 0.00 0.00 0.00 53 1009.4
20260504032007 8 238 1.6 4.8 0.00 0.00 0.00 54 1009.4
20260504031508 8 208 4.8 9.7 0.00 0.00 0.00 53 1009.4
20260504030009 8 247 0.0 3.2 0.00 0.00 0.00 52 1009.8
20260504025508 8 256 9.7 9.7 0.00 0.00 0.00 52 1009.8
20260504025008 9 289 9.7 9.7 0.00 0.00 0.00 52 1009.8
20260504024509 9 125 1.6 9.7 0.00 0.00 0.00 51 1009.8
20260504024008 9 249 3.2 8.0 0.00 0.00 0.00 52 1009.8
20260504023508 9 184 4.8 16.1 0.00 0.00 0.00 52 1009.8
20260504023009 9 236 4.8 8.0 0.00 0.00 0.00 51 1009.8
20260504022508 9 276 3.2 8.0 0.00 0.00 0.00 51 1010.1
20260504022008 10 251 4.8 4.8 0.00 0.00 0.00 50 1009.8
20260504021509 10 251 6.4 12.9 0.00 0.00 0.00 50 1009.8
20260504021008 10 235 9.7 17.7 0.00 0.00 0.00 49 1010.1
20260504020008 10 289 6.4 6.4 0.00 0.00 0.00 49 1010.1
20260504015507 10 304 1.6 11.3 0.00 0.00 0.00 49 1010.1
20260504014507 10 155 6.4 9.7 0.00 0.00 0.00 48 1010.1
20260504014010 10 301 6.4 9.7 0.00 0.00 0.00 48 1010.1
20260504013509 10 252 9.7 9.7 0.00 0.00 0.00 47 1010.1
20260504013009 10 256 3.2 11.3 0.00 0.00 0.00 47 1010.1
20260504012509 10 265 1.6 6.4 0.00 0.00 0.00 47 1010.1
20260504011508 10 290 3.2 4.8 0.00 0.00 0.00 46 1010.1
20260504011008 10 225 6.4 11.3 0.00 0.00 0.00 46 1010.1
20260504010508 10 277 9.7 9.7 0.00 0.00 0.00 46 1010.1
20260504010009 11 274 8.0 17.7 0.00 0.00 0.00 46 1010.1
20260504005008 11 261 14.5 14.5 0.00 0.00 0.00 44 1010.1
20260504004509 11 295 6.4 6.4 0.00 0.00 0.00 44 1009.8
20260504004008 11 265 6.4 16.1 0.00 0.00 0.00 44 1010.1
20260504003509 11 247 0.0 4.8 0.00 0.00 0.00 43 1009.8
20260504002509 11 251 3.2 8.0 0.00 0.00 0.00 40 1009.8
20260504002008 11 301 4.8 4.8 0.00 0.00 0.00 39 1009.8
20260504001508 11 314 4.8 6.4 0.00 0.00 0.00 39 1009.8
20260504001010 11 317 6.4 8.0 0.00 0.00 0.00 38 1009.8
20260504000508 11 302 1.6 12.9 0.00 0.00 0.00 38 1009.8
20260504000008 11 286 9.7 14.5 0.00 0.00 0.00 39 1009.8
20260503235509 11 292 8.0 8.0 0.00 0.00 0.00 39 1009.8
20260503235008 11 324 3.2 8.0 0.00 0.00 0.00 38 1009.8
20260503234508 12 330 9.7 9.7 0.00 0.00 0.00 38 1009.8
20260503233508 12 271 8.0 8.0 0.00 0.00 0.00 38 1009.8
20260503233008 12 303 3.2 8.0 0.00 0.00 0.00 37 1009.8
20260503232509 12 329 3.2 11.3 0.00 0.00 0.00 37 1009.4
20260503232008 12 343 4.8 4.8 0.00 0.00 0.00 36 1009.8
20260503231510 12 324 6.4 8.0 0.00 0.00 0.00 36 1009.4
20260503231008 12 290 9.7 9.7 0.00 0.00 0.00 36 1009.4
20260503230508 12 351 4.8 6.4 0.00 0.00 0.00 36 1009.4
20260503230008 12 332 6.4 9.7 0.00 0.00 0.00 36 1009.4
20260503225508 12 347 6.4 9.7 0.00 0.00 0.00 36 1009.4
20260503225009 12 263 0.0 8.0 0.00 0.00 0.00 36 1009.4
20260503224509 12 254 1.6 12.9 0.00 0.00 0.00 36 1009.4
20260503224008 12 237 9.7 12.9 0.00 0.00 0.00 36 1009.8
20260503223508 13 286 4.8 6.4 0.00 0.00 0.00 36 1009.8
20260503223008 13 322 6.4 11.3 0.00 0.00 0.00 36 1009.4
20260503222507 13 295 8.0 14.5 0.00 0.00 0.00 36 1009.4
20260503221509 13 322 9.7 9.7 0.00 0.00 0.00 35 1009.4
20260503221007 13 340 11.3 14.5 0.00 0.00 0.00 35 1009.4
20260503220509 13 309 16.1 17.7 0.00 0.00 0.00 36 1009.4
20260503220008 13 304 14.5 17.7 0.00 0.00 0.00 36 1009.8
20260503215507 13 20 9.7 14.5 0.00 0.00 0.00 36 1009.4
20260503215009 12 324 6.4 8.0 0.00 0.00 0.00 36 1009.4
20260503213508 13 331 4.8 9.7 0.00 0.00 0.00 36 1009.8
20260503213010 13 312 9.7 14.5 0.00 0.00 0.00 36 1009.8
20260503212507 13 309 16.1 16.1 0.00 0.00 0.00 37 1009.8
20260503212008 13 308 14.5 14.5 0.00 0.00 0.00 37 1009.8
20260503211508 12 281 4.8 11.3 0.00 0.00 0.00 38 1009.8
20260503211008 12 335 6.4 12.9 0.00 0.00 0.00 38 1009.8
20260503210508 12 222 11.3 12.9 0.00 0.00 0.00 38 1009.4
20260503210008 12 280 12.9 12.9 0.00 0.00 0.00 37 1009.8
20260503205507 12 305 8.0 11.3 0.00 0.00 0.00 38 1009.8
20260503205007 12 236 0.0 11.3 0.00 0.00 0.00 37 1009.8
20260503204509 13 247 14.5 16.1 0.00 0.00 0.00 37 1009.8
20260503204008 13 251 9.7 14.5 0.00 0.00 0.00 36 1009.4
20260503203508 13 353 8.0 12.9 0.00 0.00 0.00 36 1009.8
20260503202007 13 1 6.4 14.5 0.00 0.00 0.00 38 1009.8
20260503201508 12 318 8.0 9.7 0.00 0.00 0.00 40 1009.8
20260503201007 12 301 12.9 12.9 0.00 0.00 0.00 40 1010.1
20260503200009 12 311 16.1 19.3 0.00 0.00 0.00 39 1010.1
20260503195508 12 346 6.4 9.7 0.00 0.00 0.00 40 1010.1
20260503194508 12 318 6.4 6.4 0.00 0.00 0.00 43 1010.1
20260503193508 12 312 6.4 6.4 0.00 0.00 0.00 43 1010.4
20260503193008 12 298 0.0 6.4 0.00 0.00 0.00 44 1010.4
20260503192508 11 50 0.0 3.2 0.00 0.00 0.00 44 1010.8
20260503192008 11 50 0.0 3.2 0.00 0.00 0.00 44 1010.8
20260503191008 11 30 4.8 8.0 0.00 0.00 0.00 44 1010.8
20260503190507 11 320 1.6 6.4 0.00 0.00 0.00 43 1010.8
20260503190010 11 81 4.8 6.4 0.00 0.00 0.00 44 1010.8
20260503185508 11 340 3.2 4.8 0.00 0.00 0.00 44 1010.8
20260503185008 11 336 1.6 4.8 0.00 0.00 0.00 45 1011.1
20260503184008 11 331 4.8 4.8 0.00 0.00 0.00 44 1011.1
20260503183507 11 285 4.8 6.4 0.00 0.00 0.00 44 1011.1
20260503183009 11 18 4.8 9.7 0.00 0.00 0.00 43 1011.1
20260503181508 12 299 8.0 9.7 0.00 0.00 0.00 44 1011.5
20260503181008 11 276 9.7 11.3 0.00 0.00 0.00 46 1011.5
20260503180508 11 321 0.0 9.7 0.00 0.00 0.00 46 1011.5
20260503180008 11 327 1.6 8.0 0.00 0.00 0.00 47 1011.5
20260503175508 11 336 6.4 6.4 0.00 0.00 0.00 46 1011.8
20260503175008 12 337 12.9 16.1 0.00 0.00 0.00 44 1011.5
20260503174508 12 336 11.3 11.3 0.00 0.00 0.00 43 1011.5
20260503174008 12 335 6.4 9.7 0.00 0.00 0.00 43 1011.5
20260503173508 12 313 11.3 12.9 0.00 0.00 0.00 44 1011.8
20260503173008 12 275 1.6 11.3 0.00 0.00 0.00 45 1011.8
20260503172508 12 302 12.9 12.9 0.00 0.00 0.00 46 1011.8
20260503172007 12 200 6.4 6.4 0.00 0.00 0.00 45 1011.8
20260503171508 12 294 6.4 9.7 0.00 0.00 0.00 46 1012.1
20260503171008 11 280 8.0 9.7 0.00 0.00 0.00 49 1012.1
20260503170509 10 290 0.0 6.4 0.00 0.00 0.00 50 1012.1
20260503150509 11 267 1.6 4.8 0.00 0.00 0.00 46 1013.8
20260503131008 6 98 0.0 0.0 0.00 0.00 0.00 67 1014.9
20260503130508 6 115 0.0 0.0 0.00 0.00 0.00 68 1014.9
20260503090508 3 298 0.0 0.0 0.00 0.00 0.00 83 1014.2
20260503080509 3 322 0.0 0.0 0.00 0.00 0.00 81 1014.5
20260503072507 3 357 0.0 0.0 0.00 0.00 0.00 80 1014.5